FLOCK 2K-11 (42894 NORAD) Tracking and Keplerian Element Data

This shows tracking and keplerian element data for the satellite.

Feedback or suggestion? Click here.




ElementValue
Catalog42894
NameFLOCK 2K-11
Epoch Orbit17129
Epoch Day216.0611481
Epoch Year2020
RAAN81.4428
Inclination96.8881
Eccentricity0.0011761
Argument of Perigee138.533
Mean Anonmoly221.6813
Mean Motion15.41690264
Decay Rate6.253E-05
L11 42894U 17042BX 20216.06114810 .00006253 00000-0 14976-3 0 9999
L22 42894 96.8881 81.4428 0011761 138.5330 221.6813 15.41690264171296

Live tracking and technical data element details for FLOCK 2K-11 (NORAD 42894). FLOCK 2K-11 can be tracked NOW for your location showing map with azimuth and elevation plus other details from your city location.

Track the satellite on the map from your city or location and see movement details for azimuth, elevation, latitude, longitude, range, height, and movement on the map or in text.







IsCatalogInMostPopularTable: catalog: 42894, numindb: 594
Update: records affected: 1



GetName: 42894 FLOCK 2K-11

Hit Count: updated at: Fri, 24 Sep 2021 19:12:46 GMT